Snowfall_Accumulation
0.0 0.0 0.0 0.0 0.0 0.0 0.0 0.0 0.0 0.0 0.0 0.0 0.0 0.0 0.0 0.0 0.0 0.0 0.0 0.0 0.0 0.0 0.0 0.0 0.0 0.0 0.0 0.0 0.0 0.0 0.0 0.0 0.0 0.0 0.0 0.0 0.0 0.0 0.0 0.0 0.0 0.0 0.0
0.0 0.0 0.0 0.0 0.0 0.0 0.0 0.0 0.0 0.0 0.0 0.0 0.0 0.0 0.0 0.0 0.0 0.0 0.0 0.0 0.0 0.0 0.0 0.0 0.0 0.0 0.0 0.0 0.0 0.0 0.0 0.0 0.0 0.0 0.0 0.0 0.0 0.0 0.0 0.0 0.0 0.0 0.0
0.0 0.0 0.0 0.0 0.0 0.0 0.0 0.0 0.0 0.0 0.0 0.0 0.0 0.0 0.0 0.0 0.0 0.0 0.0 0.0 0.0 0.0 0.0 0.0 0.0 0.0 0.0 0.0 0.0 0.0 0.0 0.0 0.0 0.0 0.0 0.0 0.0 0.0 0.0 0.0 0.0 0.0 0.0
0.0 0.0 0.0 0.0 0.0 0.0 0.0 0.0 0.0 0.0 0.0 0.0 0.0 0.0 0.0 0.0 0.0 0.0 0.0 0.0 0.0 0.0 0.0 0.0 0.0 0.0 0.0 0.0 0.0 0.0 0.0 0.0 0.0 0.0 0.0 0.0 0.0 0.0 0.0 0.0 0.0 0.0 0.0
0.0 0.0 0.0 0.0 0.0 0.0 0.0 0.0 0.0 0.0 0.0 0.0 0.0 0.0 0.0 0.0 0.0 0.0 0.0 0.0 0.0 0.0 0.0 0.0 0.0 nan nan nan 0.0 0.0 0.0 0.0 0.0 0.0 0.0 0.0 0.0 0.0 0.0 0.0 0.0 0.0 0.0
0.0 0.0 0.0 0.0 0.0 0.0 0.0 0.0 0.0 0.0 0.0 0.0 0.0 0.0 0.0 0.0 nan nan 0.0 0.0 0.0 0.0 0.0 0.0 0.0 0.0 0.0 nan nan nan nan 0.0 0.0 0.1 0.1 0.2 0.1 0.0 0.1 0.1 0.1 0.5 0.9
0.0 0.0 0.0 0.0 0.0 0.0 0.0 0.0 0.0 0.0 0.0 0.0 0.0 0.0 0.0 0.0 nan nan nan 0.0 0.0 0.0 0.0 0.0 0.0 0.0 nan 0.0 nan nan nan nan 0.0 0.0 0.2 0.1 0.2 0.0 0.0 0.1 0.1 0.1 0.1
0.0 0.0 0.0 0.0 0.0 0.0 0.0 0.0 0.0 0.0 0.0 0.0 0.0 0.0 0.0 0.0 nan nan nan 0.0 0.0 0.0 0.0 0.0 0.0 0.0 0.0 0.1 0.2 0.2 0.2 0.3 0.2 0.1 0.1 0.0 0.0 0.0 0.0 0.0 0.1 0.1 0.1
0.0 0.0 0.0 0.0 0.0 0.0 0.0 0.0 0.0 0.0 0.0 0.0 0.0 0.0 0.0 0.0 nan nan 0.0 0.0 0.0 0.1 0.1 0.2 0.3 0.3 nan nan 0.6 0.5 0.2 0.2 nan nan nan nan nan nan nan 0.6 1.5 2.5 2.3
0.0 0.0 0.0 0.0 0.0 0.0 0.0 0.0 0.0 0.0 0.0 0.0 0.0 0.0 nan 0.0 nan nan nan 0.4 0.1 0.4 0.2 0.5 nan 0.4 nan nan 0.2 0.3 0.5 0.2 0.1 0.2 0.1 0.0 nan nan nan 0.2 1.0 3.7 1.7
0.0 0.0 0.0 0.0 0.0 0.0 0.0 0.0 0.0 0.0 0.0 0.0 0.0 0.0 0.0 0.0 0.0 nan nan 0.3 1.0 1.2 0.9 0.6 0.4 nan nan nan nan 0.4 0.7 0.3 0.1 0.2 0.2 0.3 0.2 0.2 0.4 0.3 0.2 1.5 2.1
0.0 0.0 0.0 0.0 0.0 0.0 0.0 0.0 0.0 0.0 0.0 0.1 0.4 0.4 0.6 0.3 nan nan nan nan nan 2.0 1.3 1.2 1.0 nan nan nan 0.5 nan nan 0.3 2.0 1.9 1.6 1.1 1.0 0.8 0.4 0.3 0.1 0.2 0.3
0.0 0.0 0.0 0.0 0.0 0.0 0.0 0.0 0.0 0.0 0.2 0.2 1.0 0.9 1.2 1.1 1.5 nan nan nan nan 1.9 1.5 1.3 nan nan nan 0.7 nan nan 0.0 2.9 3.3 5.0 2.4 1.2 0.8 0.5 0.1 0.3 0.1 0.1 0.1
0.0 0.0 0.0 0.0 0.0 0.0 0.0 0.0 0.1 0.2 0.5 0.6 1.5 2.8 3.0 2.1 1.9 1.8 1.6 1.6 nan 1.4 0.4 1.1 0.1 0.9 0.1 0.4 1.3 1.7 2.3 2.5 3.1 3.0 2.0 1.0 0.6 1.0 1.0 0.6 1.4 1.4 2.8
0.0 0.0 0.0 0.0 0.0 0.1 0.0 0.2 0.4 1.0 1.6 2.2 2.0 2.1 4.8 5.3 2.8 2.2 2.2 2.2 2.1 1.2 1.9 3.2 2.2 1.8 2.0 1.7 1.8 1.7 1.5 1.6 2.9 2.6 2.6 1.9 1.3 1.1 1.3 1.1 1.2 1.0 2.9
0.0 0.0 0.2 0.3 0.4 0.4 0.8 1.5 nan nan nan nan nan 3.2 3.3 nan nan nan nan nan nan nan 2.9 3.8 6.8 7.6 4.8 2.4 3.3 2.9 2.1 1.8 1.8 2.1 3.3 2.6 2.8 2.9 3.0 2.7 2.5 3.1 3.7
0.0 0.0 0.5 0.7 1.7 1.7 1.4 1.2 1.6 1.8 nan nan nan nan nan nan nan nan nan nan nan nan 5.8 4.6 10.5 11.9 6.8 3.2 2.8 2.5 3.6 3.0 1.1 2.6 3.6 4.1 4.2 3.1 4.0 3.1 3.0 3.0 3.2
0.5 0.4 1.6 1.5 1.3 1.3 1.8 2.0 1.7 2.4 4.2 2.7 nan nan nan nan nan nan nan nan 3.3 nan 2.7 5.2 7.9 7.3 3.3 2.0 2.1 2.3 2.4 3.7 4.1 3.1 5.0 6.7 8.0 6.4 5.8 4.0 3.4 6.1 4.0
1.9 1.9 2.1 2.7 2.7 2.3 1.9 1.8 1.7 2.3 2.9 2.3 1.5 1.7 2.0 nan nan nan nan 4.6 4.8 3.1 2.3 2.3 4.5 4.1 3.8 2.6 8.4 9.5 12.1 10.5 10.3 13.0 7.1 7.4 15.1 4.6 5.2 3.8 4.4 3.9 3.2
1.2 0.5 1.0 1.6 1.7 1.7 1.6 2.3 2.3 2.6 2.7 3.2 3.2 3.4 2.9 2.5 9.4 15.2 10.4 15.6 11.0 4.7 5.2 3.6 3.3 3.6 5.7 5.3 12.0 18.0 15.4 14.4 10.5 7.6 15.0 20.1 17.4 8.6 7.9 7.0 8.0 6.9 2.6
0.6 0.4 0.1 0.8 1.2 1.5 2.4 2.9 3.0 4.1 4.2 4.1 7.2 10.3 2.2 5.1 7.8 7.7 6.6 9.4 7.3 6.4 9.5 4.4 5.8 6.9 6.4 8.2 4.9 10.4 4.9 20.4 9.0 9.1 8.7 8.3 32.6 11.7 5.9 6.2 6.7 4.9 3.9
0.9 1.1 1.5 2.6 2.4 4.0 2.9 2.8 4.0 4.1 4.5 4.9 5.6 4.8 3.5 9.2 6.2 6.5 6.6 10.5 16.7 7.4 6.0 7.1 5.5 4.8 5.4 5.5 6.4 18.4 14.5 19.0 16.1 12.1 10.4 10.6 8.0 8.2 7.5 7.3 8.7 8.6 5.6
2.0 4.2 2.7 1.9 2.6 6.1 6.1 3.1 6.9 7.5 6.2 7.9 5.1 5.6 5.9 10.1 10.0 6.5 8.9 14.5 7.5 9.3 8.2 7.3 13.2 7.7 7.4 10.4 9.9 7.7 11.7 10.0 10.3 12.8 16.4 15.3 8.8 8.7 14.0 9.7 7.8 9.1 9.5
2.7 5.4 3.0 5.0 7.1 4.4 9.9 13.2 9.0 6.9 6.1 8.4 15.5 13.1 10.1 10.2 18.8 14.7 16.3 19.0 12.6 16.1 15.7 16.9 7.8 6.2 6.2 17.9 12.4 10.0 6.1 11.6 8.7 9.9 10.5 14.4 10.3 7.1 10.8 8.2 7.9 9.4 11.2
6.4 9.1 9.8 7.2 6.9 12.5 15.2 11.2 12.6 14.7 13.5 15.7 18.8 15.3 6.0 11.3 8.8 19.6 16.1 12.6 11.2 17.2 9.8 12.1 10.9 7.9 9.7 8.0 7.6 4.2 5.7 4.6 9.4 4.9 10.7 8.5 10.7 10.3 11.1 9.4 12.1 7.8 10.0
4.8 5.7 7.7 8.3 8.9 12.2 12.9 18.7 19.1 16.3 16.7 18.2 18.2 19.3 14.6 10.5 9.6 17.3 12.8 12.4 11.2 10.7 9.8 10.9 10.1 8.2 7.5 7.7 5.4 5.6 5.4 5.0 14.0 5.1 15.5 7.8 12.0 11.1 10.9 9.5 7.7 10.7 7.7
Water_Equivalent
0.00 0.00 0.00 0.00 0.00 0.00 0.00 0.00 0.00 0.00 0.00 0.00 0.00 0.00 0.00 0.00 0.00 0.00 0.00 0.00 0.00 0.00 0.00 0.00 0.00 0.00 0.00 0.00 0.00 0.00 0.00 0.00 0.00 0.00 0.00 0.00 0.00 0.00 0.00 0.00 0.00 0.00 0.00
0.00 0.00 0.00 0.00 0.00 0.00 0.00 0.00 0.00 0.00 0.00 0.00 0.00 0.00 0.00 0.00 0.00 0.00 0.00 0.00 0.00 0.00 0.00 0.00 0.00 0.00 0.00 0.00 0.00 0.00 0.00 0.00 0.00 0.00 0.00 0.00 0.00 0.00 0.00 0.00 0.00 0.00 0.00
0.00 0.00 0.00 0.00 0.00 0.00 0.00 0.00 0.00 0.00 0.00 0.00 0.00 0.00 0.00 0.00 0.00 0.00 0.00 0.00 0.00 0.00 0.00 0.00 0.00 0.00 0.00 0.00 0.00 0.00 0.00 0.00 0.00 0.00 0.00 0.00 0.00 0.00 0.00 0.00 0.00 0.00 0.00
0.00 0.00 0.00 0.00 0.00 0.00 0.00 0.00 0.00 0.00 0.00 0.00 0.00 0.00 0.00 0.00 0.00 0.00 0.00 0.00 0.00 0.00 0.00 0.00 0.00 0.00 0.00 0.00 0.00 0.00 0.00 0.00 0.00 0.00 0.00 0.00 0.00 0.00 0.00 0.00 0.00 0.00 0.00
0.00 0.00 0.00 0.00 0.00 0.00 0.00 0.00 0.00 0.00 0.00 0.00 0.00 0.00 0.00 0.00 0.00 0.00 0.00 0.00 0.00 0.00 0.00 0.00 0.00 nan nan nan 0.00 0.00 0.00 0.00 0.00 0.00 0.00 0.00 0.00 0.00 0.00 0.00 0.00 0.00 0.00
0.00 0.00 0.00 0.00 0.00 0.00 0.00 0.00 0.00 0.00 0.00 0.00 0.00 0.00 0.00 0.00 nan nan 0.00 0.00 0.00 0.00 0.00 0.00 0.00 0.00 0.00 nan nan nan nan 0.00 0.00 0.02 0.01 0.03 0.01 0.00 0.02 0.01 0.02 0.10 0.17
0.00 0.00 0.00 0.00 0.00 0.00 0.00 0.00 0.00 0.00 0.00 0.00 0.00 0.00 0.00 0.00 nan nan nan 0.00 0.00 0.00 0.00 0.00 0.00 0.00 nan 0.00 nan nan nan nan 0.00 0.01 0.03 0.03 0.03 0.00 0.00 0.02 0.01 0.01 0.01
0.00 0.00 0.00 0.00 0.00 0.00 0.00 0.00 0.00 0.00 0.00 0.00 0.00 0.00 0.00 0.00 nan nan nan 0.00 0.00 0.00 0.00 0.00 0.00 0.00 0.00 0.01 0.04 0.05 0.05 0.05 0.03 0.02 0.01 0.00 0.00 0.00 0.00 0.01 0.01 0.01 0.03
0.00 0.00 0.00 0.00 0.00 0.00 0.00 0.00 0.00 0.00 0.00 0.00 0.00 0.00 0.00 0.00 nan nan 0.00 0.00 0.00 0.02 0.02 0.03 0.05 0.05 nan nan 0.10 0.07 0.03 0.02 nan nan nan nan nan nan nan 0.17 0.34 0.50 0.52
0.00 0.00 0.00 0.00 0.00 0.00 0.00 0.00 0.00 0.00 0.00 0.00 0.00 0.00 nan 0.00 nan nan nan 0.12 0.03 0.12 0.05 0.10 nan 0.07 nan nan 0.05 0.05 0.10 0.03 0.01 0.02 0.02 0.01 nan nan nan 0.04 0.20 0.63 0.31
0.00 0.00 0.00 0.00 0.00 0.00 0.00 0.00 0.00 0.00 0.00 0.01 0.02 0.00 0.00 0.00 0.00 nan nan 0.09 0.24 0.25 0.18 0.14 0.09 nan nan nan nan 0.07 0.12 0.05 0.01 0.06 0.05 0.08 0.05 0.04 0.10 0.08 0.03 0.30 0.40
0.00 0.00 0.00 0.00 0.00 0.00 0.00 0.00 0.00 0.00 0.00 0.04 0.13 0.11 0.17 0.06 nan nan nan nan nan 0.38 0.20 0.20 0.17 nan nan nan 0.14 nan nan 0.07 0.51 0.43 0.35 0.24 0.21 0.19 0.10 0.09 0.01 0.05 0.07
0.00 0.00 0.00 0.00 0.00 0.00 0.00 0.00 0.02 0.00 0.07 0.05 0.34 0.26 0.30 0.24 0.27 nan nan nan nan 0.39 0.28 0.23 nan nan nan 0.23 nan nan 0.00 0.64 0.72 0.95 0.46 0.23 0.16 0.12 0.03 0.07 0.01 0.02 0.02
0.00 0.00 0.00 0.00 0.00 0.00 0.00 0.00 0.04 0.09 0.16 0.17 0.36 0.54 0.56 0.34 0.30 0.29 0.30 0.30 nan 0.28 0.10 0.23 0.03 0.22 0.03 0.10 0.28 0.38 0.53 0.56 0.62 0.55 0.36 0.19 0.14 0.23 0.25 0.15 0.30 0.30 0.56
0.00 0.00 0.00 0.01 0.00 0.02 0.01 0.05 0.10 0.17 0.32 0.42 0.36 0.42 0.93 0.95 0.46 0.41 0.44 0.46 0.46 0.25 0.41 0.63 0.41 0.33 0.35 0.31 0.36 0.34 0.31 0.32 0.54 0.49 0.47 0.35 0.26 0.22 0.29 0.28 0.29 0.22 0.54
0.00 0.00 0.07 0.10 0.11 0.11 0.16 0.25 nan nan nan nan nan 0.69 0.75 nan nan nan nan nan nan nan 0.53 0.66 1.13 1.27 0.79 0.41 0.58 0.52 0.40 0.37 0.36 0.42 0.67 0.50 0.53 0.56 0.55 0.52 0.47 0.56 0.62
0.00 0.01 0.13 0.16 0.30 0.30 0.27 0.24 0.30 0.34 nan nan nan nan nan nan nan nan nan nan nan nan 0.97 0.77 1.48 1.76 1.09 0.50 0.45 0.42 0.61 0.56 0.19 0.51 0.66 0.76 0.75 0.56 0.74 0.61 0.61 0.58 0.60
0.08 0.15 0.28 0.27 0.24 0.27 0.37 0.39 0.35 0.47 0.78 0.54 nan nan nan nan nan nan nan nan 0.54 nan 0.42 0.76 1.08 1.08 0.53 0.33 0.34 0.37 0.41 0.66 0.70 0.56 0.88 1.16 1.35 1.01 0.95 0.67 0.60 0.91 0.67
0.27 0.32 0.39 0.51 0.55 0.46 0.44 0.44 0.40 0.49 0.57 0.45 0.33 0.40 0.51 nan nan nan nan 0.75 0.70 0.50 0.37 0.37 0.68 0.59 0.56 0.40 1.25 1.40 1.75 1.55 1.56 1.99 1.17 1.21 2.63 0.77 0.89 0.67 0.73 0.78 0.68
0.16 0.11 0.20 0.34 0.38 0.39 0.36 0.48 0.46 0.54 0.54 0.61 0.57 0.56 0.51 0.45 1.48 2.40 1.56 2.37 1.56 0.68 0.76 0.50 0.48 0.54 0.82 0.73 1.59 2.50 2.23 2.17 1.52 1.12 2.14 3.18 2.88 1.31 1.11 0.96 1.19 1.07 0.46
0.11 0.11 0.02 0.21 0.27 0.34 0.51 0.57 0.55 0.70 0.72 0.65 1.12 1.72 0.71 0.71 1.10 1.10 0.90 1.31 0.98 0.87 1.34 0.62 0.86 1.03 0.98 1.22 0.70 1.38 0.66 2.99 1.22 1.24 1.17 1.17 5.35 1.57 0.84 0.92 1.04 0.76 0.58
0.20 0.26 0.36 0.58 0.52 0.81 0.58 0.54 0.70 0.68 0.70 0.77 0.89 0.81 1.15 1.36 0.87 0.89 0.91 1.53 2.62 1.04 0.83 1.05 0.77 0.68 0.74 0.78 0.89 2.72 1.88 2.55 2.24 1.60 1.38 1.27 1.05 1.15 1.00 1.02 1.18 1.22 0.83
0.44 0.92 0.58 0.39 0.54 1.90 1.14 0.58 1.08 1.20 0.99 1.28 0.80 0.84 0.90 1.50 1.48 0.90 1.27 2.27 1.08 1.36 1.21 1.06 1.94 1.04 1.09 1.47 1.48 1.08 1.47 1.26 1.34 1.66 1.86 1.87 1.10 1.18 1.86 1.32 1.07 1.17 1.18
0.61 1.15 0.62 1.05 1.36 0.79 1.73 2.29 1.51 2.16 1.00 1.42 2.66 2.07 1.61 1.61 3.19 2.41 2.60 3.28 2.04 2.79 2.75 2.62 1.07 0.81 0.81 2.66 1.71 1.34 0.83 1.51 1.19 1.19 1.37 1.65 1.24 1.23 1.49 1.14 1.12 1.16 1.34
1.35 1.87 1.97 1.36 1.30 2.34 2.90 2.03 2.19 2.61 2.39 2.82 3.25 2.52 0.95 1.91 1.43 3.55 2.76 2.01 1.69 2.78 1.49 1.88 1.59 1.15 1.29 0.99 0.88 0.49 0.88 1.52 1.51 1.63 1.24 0.99 1.28 1.20 1.22 1.17 1.50 1.11 1.18
0.96 1.16 1.50 1.51 1.59 2.26 2.31 3.25 3.25 2.82 2.73 3.21 3.25 3.36 2.47 1.70 1.58 3.04 2.09 1.90 1.62 1.52 1.46 1.63 1.46 1.10 0.97 1.01 0.66 1.70 1.77 1.65 1.76 1.68 1.83 1.02 1.40 1.40 1.38 1.21 1.03 1.32 0.91
SL_Ratio
nan nan nan nan nan nan nan nan nan nan nan nan nan nan nan nan nan nan nan nan nan nan nan nan nan nan nan nan nan nan nan nan nan nan nan nan nan nan nan nan nan nan nan
nan nan nan nan nan nan nan nan nan nan nan nan nan nan nan nan nan nan nan nan nan nan nan nan nan nan nan nan nan nan nan nan nan nan nan nan nan nan nan nan nan nan nan
nan nan nan nan nan nan nan nan nan nan nan nan nan nan nan nan nan nan nan nan nan nan nan nan nan nan nan nan nan nan nan nan nan nan nan nan nan nan nan nan nan nan nan
nan nan nan nan nan nan nan nan nan nan nan nan nan nan nan nan nan nan nan nan nan nan nan nan nan nan nan nan nan nan nan nan nan nan nan nan nan nan nan nan nan nan nan
nan nan nan nan nan nan nan nan nan nan nan nan nan nan nan nan nan nan nan nan nan nan nan nan nan nan nan nan nan nan nan nan nan nan nan nan nan nan nan nan 5.6 nan nan
nan nan nan nan nan nan nan nan nan nan nan nan nan nan nan nan nan nan nan nan nan nan nan nan nan nan nan nan nan nan nan nan nan 4.4 5.1 5.6 5.7 6.7 5.2 5.4 5.4 5.3 5.3
nan nan nan nan nan nan nan nan nan nan nan nan nan nan nan nan nan nan nan nan nan nan nan nan nan nan nan nan nan nan nan nan 3.3 5.3 5.5 5.6 5.6 5.0 3.3 6.0 6.2 5.8 6.0
nan nan nan nan nan nan nan nan nan nan nan nan nan nan nan nan nan nan nan nan nan nan nan nan 2.7 4.6 nan 5.9 4.8 3.6 5.0 5.6 6.1 6.3 6.2 6.0 nan nan 6.3 5.8 5.4 5.3 3.2
nan nan nan nan nan nan nan nan nan nan nan nan nan nan nan nan nan nan nan nan 2.5 2.5 4.6 5.0 5.5 5.3 nan nan 6.0 6.2 7.0 6.8 nan nan nan nan nan nan nan 3.7 4.3 5.1 4.4
nan nan nan nan nan nan nan nan nan nan nan nan nan nan nan nan nan nan nan 3.0 3.5 3.3 5.2 5.5 nan 5.8 nan nan 5.2 5.3 5.4 6.2 6.8 6.8 6.4 6.1 nan nan nan 5.3 5.1 5.9 5.4
nan nan nan nan nan nan nan nan nan nan nan 2.4 2.5 0.0 nan 0.0 2.5 nan nan 3.7 4.3 4.8 4.9 4.6 3.9 nan nan nan nan 5.6 6.2 6.7 5.5 4.2 4.1 3.5 3.4 4.0 3.8 4.0 4.5 4.9 5.4
nan nan nan nan nan nan nan nan nan nan nan 2.9 3.0 3.3 3.4 4.5 nan nan nan nan nan 5.2 6.6 6.1 5.7 nan nan nan 3.8 nan nan 3.7 3.9 4.3 4.5 4.7 4.5 4.2 4.0 3.7 4.7 3.8 3.8
nan nan nan nan nan nan nan nan 2.4 nan 3.0 3.0 2.9 3.3 3.9 4.6 5.6 nan nan nan nan 5.0 5.3 5.5 nan nan nan 3.0 nan nan 2.9 4.5 4.6 5.3 5.3 5.2 5.0 4.2 4.0 3.9 3.9 4.1 4.2
nan nan nan nan nan nan nan nan 2.7 2.6 3.2 3.3 4.2 5.1 5.3 6.2 6.3 6.2 5.4 5.4 nan 5.2 3.8 4.7 3.1 4.2 3.0 4.0 4.5 4.5 4.4 4.4 4.9 5.4 5.5 5.6 4.4 4.2 4.1 3.7 4.7 4.7 5.0
nan nan nan 3.0 3.1 3.3 3.8 3.1 3.8 6.0 5.2 5.3 5.6 5.1 5.1 5.6 6.1 5.4 5.0 4.8 4.6 4.8 4.6 5.1 5.3 5.6 5.8 5.6 5.1 5.0 5.0 5.0 5.3 5.2 5.5 5.3 5.0 4.7 4.6 4.1 4.3 4.5 5.4
nan nan 3.3 3.4 3.6 3.8 4.8 6.0 nan nan nan nan nan 4.7 4.3 nan nan nan nan nan nan nan 5.5 5.7 6.0 6.0 6.1 5.9 5.8 5.6 5.2 4.9 5.1 5.0 4.9 5.1 5.3 5.2 5.5 5.1 5.2 5.6 5.9
nan 5.0 4.0 4.3 5.5 5.5 5.2 5.0 5.4 5.3 nan nan nan nan nan nan nan nan nan nan nan nan 5.9 6.0 7.1 6.7 6.2 6.4 6.3 6.0 5.9 5.3 5.9 5.2 5.4 5.5 5.6 5.5 5.4 5.2 4.9 5.1 5.3
6.8 3.0 5.7 5.6 5.2 5.0 4.9 5.1 5.0 5.1 5.4 4.9 nan nan nan nan nan nan nan nan 6.0 nan 6.3 6.8 7.3 6.8 6.3 6.2 6.1 6.2 5.9 5.6 5.8 5.5 5.7 5.8 5.9 6.3 6.1 6.1 5.7 6.7 6.0
7.0 6.1 5.4 5.2 5.0 4.9 4.4 4.2 4.3 4.7 5.0 5.1 4.6 4.2 4.0 nan nan nan nan 6.1 6.9 6.3 6.2 6.3 6.6 6.9 6.8 6.6 6.7 6.8 6.9 6.7 6.6 6.5 6.1 6.2 5.7 6.0 5.9 5.7 6.0 5.1 4.7
7.5 4.0 4.9 4.8 4.4 4.4 4.3 4.7 5.0 4.9 5.1 5.3 5.6 6.0 5.8 5.7 6.4 6.3 6.6 6.6 7.1 6.9 6.8 7.2 6.8 6.8 7.0 7.3 7.5 7.2 6.9 6.6 6.9 6.7 7.0 6.3 6.1 6.5 7.1 7.2 6.7 6.5 5.8
5.7 3.9 2.9 3.9 4.3 4.5 4.6 5.2 5.4 5.8 5.8 6.3 6.4 6.0 3.0 7.2 7.1 7.0 7.3 7.2 7.4 7.4 7.1 7.1 6.7 6.7 6.6 6.7 7.1 7.5 7.5 6.8 7.4 7.4 7.4 7.1 6.1 7.5 7.0 6.7 6.5 6.4 6.7
4.2 4.2 4.1 4.4 4.7 4.9 5.1 5.1 5.7 6.0 6.5 6.4 6.3 6.0 3.0 6.8 7.2 7.4 7.3 6.8 6.4 7.1 7.3 6.8 7.1 7.1 7.2 7.0 7.2 6.8 7.7 7.4 7.2 7.5 7.5 8.3 7.6 7.1 7.5 7.2 7.4 7.1 6.8
4.4 4.5 4.7 4.8 4.9 3.2 5.3 5.4 6.4 6.2 6.3 6.2 6.3 6.7 6.5 6.7 6.7 7.2 7.0 6.4 6.9 6.9 6.8 6.9 6.8 7.4 6.8 7.1 6.7 7.1 8.0 8.0 7.7 7.7 8.8 8.2 8.1 7.4 7.5 7.3 7.3 7.8 8.1
4.5 4.7 4.8 4.8 5.2 5.5 5.7 5.7 6.0 3.2 6.1 6.0 5.8 6.4 6.3 6.3 5.9 6.1 6.3 5.8 6.2 5.8 5.7 6.4 7.3 7.6 7.7 6.7 7.3 7.5 7.4 7.7 7.3 8.3 7.7 8.7 8.3 5.8 7.3 7.2 7.1 8.2 8.4
4.8 4.9 5.0 5.3 5.3 5.3 5.2 5.6 5.8 5.6 5.7 5.6 5.8 6.1 6.4 5.9 6.2 5.5 5.8 6.2 6.6 6.2 6.6 6.5 6.9 6.9 7.5 8.1 8.6 8.5 6.5 3.0 6.3 3.0 8.6 8.6 8.4 8.6 9.0 8.1 8.1 7.1 8.5
4.9 4.9 5.1 5.5 5.6 5.4 5.6 5.7 5.9 5.8 6.1 5.7 5.6 5.8 5.9 6.2 6.1 5.7 6.2 6.5 6.9 7.0 6.7 6.7 6.9 7.5 7.7 7.6 8.2 3.3 3.0 3.0 8.0 3.0 8.5 7.6 8.6 8.0 7.9 7.8 7.5 8.1 8.5